Location: Boitzum
(52.1496°N, 9.6943°E)
Time: 22:14:38
(UTC+00:00)

ATLAS 2AS CENTAUR R/B - Pass Details

Date: 13 January 2026
Orbit: 1050 x 1161 km, 63.7° (Epoch: 7 February)

Event Time Altitude Azimuth Distance (km) Brightness Sun altitude
Exits shadow 03:19:12 35° 19° (NNE) 1,650 3.8 -36.7°
Drops below altitude 10° 03:25:04 10° 79° (E) 2,868 5.7 -35.8°
Sets 03:27:58 0° 89° (E) 3,821 6.6 -35.4°
